Meteo orario Goirle

Oggi, 12 Aprile, Lunedi

Tempo Temperatura Precipitazioni Vento Pressione Umidità
00:00 +1°C° 0 mm 2 m/s 765 mm Hg 80%
01:00 +1°C° 0 mm 2 m/s 765 mm Hg 82%
02:00 +1°C° 0 mm 2 m/s 766 mm Hg 84%
03:00 -1°C° 0 mm 2 m/s 766 mm Hg 86%
04:00 +1°C° 0 mm 2 m/s 766 mm Hg 84%
05:00 +1°C° 0 mm 2 m/s 767 mm Hg 83%
06:00 +2°C° 0 mm 2 m/s 767 mm Hg 81%
07:00 +3°C° 0.2 mm 2 m/s 767 mm Hg 74%
08:00 +3°C° 0.2 mm 3 m/s 768 mm Hg 67%
09:00 +5°C° 0.2 mm 3 m/s 768 mm Hg 60%
10:00 +5°C° 0.3 mm 4 m/s 768 mm Hg 57%
11:00 +6°C° 0.3 mm 4 m/s 768 mm Hg 54%
12:00 +7°C° 0.3 mm 4 m/s 768 mm Hg 50%
13:00 +6°C° 0.2 mm 5 m/s 768 mm Hg 49%
14:00 +6°C° 0.2 mm 5 m/s 768 mm Hg 48%
15:00 +6°C° 0.2 mm 5 m/s 769 mm Hg 47%
16:00 +5°C° 0 mm 5 m/s 769 mm Hg 51%
17:00 +4°C° 0 mm 4 m/s 769 mm Hg 55%
18:00 +3°C° 0 mm 3 m/s 770 mm Hg 59%
19:00 +2°C° 0 mm 3 m/s 770 mm Hg 64%
20:00 +1°C° 0 mm 3 m/s 770 mm Hg 69%
21:00 +1°C° 0 mm 2 m/s 771 mm Hg 74%
22:00 +1°C° 0 mm 2 m/s 771 mm Hg 76%
23:00 +1°C° 0 mm 2 m/s 771 mm Hg 79%

Domani, 13 Aprile, Martedi

Tempo Temperatura Precipitazioni Vento Pressione Umidità
00:00 +1°C° 0 mm 2 m/s 771 mm Hg 82%
01:00 +1°C° 0 mm 2 m/s 772 mm Hg 83%
02:00 -1°C° 0 mm 2 m/s 772 mm Hg 85%
03:00 -1°C° 0 mm 2 m/s 772 mm Hg 86%
04:00 +1°C° 0 mm 2 m/s 772 mm Hg 84%
05:00 +1°C° 0 mm 2 m/s 772 mm Hg 83%
06:00 +3°C° 0 mm 1 m/s 773 mm Hg 81%
07:00 +4°C° 0 mm 2 m/s 773 mm Hg 71%
08:00 +5°C° 0 mm 2 m/s 773 mm Hg 61%
09:00 +7°C° 0 mm 2 m/s 773 mm Hg 52%
10:00 +8°C° 0 mm 2 m/s 773 mm Hg 47%
11:00 +9°C° 0 mm 2 m/s 773 mm Hg 41%
12:00 +9°C° 0 mm 2 m/s 773 mm Hg 36%
13:00 +9°C° 0 mm 2 m/s 772 mm Hg 37%
14:00 +9°C° 0 mm 3 m/s 772 mm Hg 37%
15:00 +10°C° 0 mm 3 m/s 772 mm Hg 38%
16:00 +8°C° 0 mm 3 m/s 772 mm Hg 45%
17:00 +7°C° 0 mm 3 m/s 772 mm Hg 51%
18:00 +6°C° 0 mm 2 m/s 772 mm Hg 58%
19:00 +5°C° 0 mm 2 m/s 772 mm Hg 62%
20:00 +4°C° 0 mm 2 m/s 772 mm Hg 65%
21:00 +3°C° 0 mm 2 m/s 773 mm Hg 69%
22:00 +3°C° 0 mm 1 m/s 773 mm Hg 71%
23:00 +3°C° 0 mm 1 m/s 772 mm Hg 73%

Dopodomani, 14 Aprile, Mercoledi

Tempo Temperatura Precipitazioni Vento Pressione Umidità
00:00 +2°C° 0 mm 1 m/s 772 mm Hg 75%
01:00 +2°C° 0 mm 1 m/s 772 mm Hg 76%
02:00 +2°C° 0 mm 1 m/s 772 mm Hg 77%
03:00 +1°C° 0 mm 1 m/s 772 mm Hg 78%
04:00 +2°C° 0 mm 1 m/s 772 mm Hg 76%
05:00 +2°C° 0 mm 1 m/s 772 mm Hg 74%
06:00 +3°C° 0 mm 1 m/s 772 mm Hg 73%
07:00 +5°C° 0 mm 1 m/s 772 mm Hg 67%
08:00 +5°C° 0 mm 2 m/s 772 mm Hg 61%
09:00 +7°C° 0 mm 2 m/s 772 mm Hg 55%
10:00 +7°C° 0 mm 2 m/s 772 mm Hg 52%
11:00 +8°C° 0 mm 2 m/s 771 mm Hg 48%
12:00 +8°C° 0 mm 3 m/s 771 mm Hg 45%
13:00 +8°C° 0.1 mm 3 m/s 771 mm Hg 47%
14:00 +7°C° 0.1 mm 4 m/s 770 mm Hg 50%
15:00 +7°C° 0.1 mm 4 m/s 770 mm Hg 53%
16:00 +6°C° 0.1 mm 4 m/s 770 mm Hg 58%
17:00 +5°C° 0.1 mm 4 m/s 770 mm Hg 64%
18:00 +4°C° 0.1 mm 4 m/s 770 mm Hg 70%
19:00 +3°C° 0 mm 3 m/s 770 mm Hg 73%
20:00 +2°C° 0 mm 3 m/s 771 mm Hg 77%
21:00 +1°C° 0 mm 3 m/s 771 mm Hg 80%
22:00 +1°C° 0 mm 2 m/s 771 mm Hg 82%
23:00 +1°C° 0 mm 2 m/s 771 mm Hg 84%

15 Aprile, Giovedi

Tempo Temperatura Precipitazioni Vento Pressione Umidità
00:00 -1°C° 0 mm 2 m/s 771 mm Hg 86%
01:00 -1°C° 0 mm 2 m/s 770 mm Hg 87%
02:00 -1°C° 0 mm 2 m/s 770 mm Hg 87%
03:00 -1°C° 0 mm 2 m/s 770 mm Hg 88%
04:00 +2°C° 0 mm 1 m/s 770 mm Hg 86%
05:00 +2°C° 0 mm 1 m/s 770 mm Hg 84%
06:00 +3°C° 0 mm 1 m/s 770 mm Hg 82%
07:00 +3°C° 0.1 mm 2 m/s 770 mm Hg 75%
08:00 +5°C° 0.1 mm 2 m/s 770 mm Hg 68%
09:00 +7°C° 0.1 mm 3 m/s 770 mm Hg 61%
10:00 +7°C° 0 mm 3 m/s 770 mm Hg 56%
11:00 +8°C° 0 mm 3 m/s 769 mm Hg 50%
12:00 +7°C° 0 mm 4 m/s 769 mm Hg 45%
13:00 +8°C° 0.1 mm 4 m/s 769 mm Hg 46%
14:00 +8°C° 0.1 mm 4 m/s 769 mm Hg 46%
15:00 +8°C° 0.1 mm 4 m/s 768 mm Hg 47%
16:00 +7°C° 0.1 mm 4 m/s 768 mm Hg 53%
17:00 +6°C° 0.1 mm 4 m/s 768 mm Hg 58%
18:00 +5°C° 0.1 mm 3 m/s 768 mm Hg 64%
19:00 +4°C° 0 mm 4 m/s 769 mm Hg 68%
20:00 +3°C° 0 mm 4 m/s 769 mm Hg 73%
21:00 +1°C° 0 mm 4 m/s 769 mm Hg 77%
22:00 +1°C° 0 mm 4 m/s 769 mm Hg 80%
23:00 0°C° 0 mm 4 m/s 769 mm Hg 82%

16 Aprile, Venerdi

Tempo Temperatura Precipitazioni Vento Pressione Umidità
00:00 +1°C° 0 mm 3 m/s 769 mm Hg 85%
01:00 0°C° 0 mm 3 m/s 769 mm Hg 86%
02:00 0°C° 0 mm 3 m/s 769 mm Hg 87%
03:00 0°C° 0 mm 3 m/s 769 mm Hg 88%
04:00 0°C° 0 mm 3 m/s 769 mm Hg 85%
05:00 0°C° 0 mm 3 m/s 769 mm Hg 82%
06:00 +1°C° 0 mm 3 m/s 769 mm Hg 79%
07:00 +3°C° 0 mm 4 m/s 769 mm Hg 71%
08:00 +4°C° 0 mm 4 m/s 769 mm Hg 62%
09:00 +6°C° 0 mm 5 m/s 769 mm Hg 53%
10:00 +7°C° 0 mm 5 m/s 769 mm Hg 51%
11:00 +8°C° 0 mm 5 m/s 769 mm Hg 48%
12:00 +9°C° 0 mm 5 m/s 768 mm Hg 45%
13:00 +9°C° 0 mm 5 m/s 768 mm Hg 48%
14:00 +9°C° 0 mm 5 m/s 768 mm Hg 51%
15:00 +9°C° 0 mm 5 m/s 768 mm Hg 54%
16:00 +8°C° 0 mm 4 m/s 768 mm Hg 57%
17:00 +8°C° 0 mm 4 m/s 767 mm Hg 59%
18:00 +7°C° 0 mm 4 m/s 767 mm Hg 61%
19:00 +7°C° 0 mm 4 m/s 768 mm Hg 64%
20:00 +6°C° 0 mm 4 m/s 768 mm Hg 67%
21:00 +5°C° 0 mm 4 m/s 768 mm Hg 70%
22:00 +4°C° 0 mm 4 m/s 768 mm Hg 75%
23:00 +3°C° 0 mm 3 m/s 768 mm Hg 80%

17 Aprile, Sabato

Tempo Temperatura Precipitazioni Vento Pressione Umidità
00:00 +3°C° 0 mm 3 m/s 768 mm Hg 84%
01:00 +2°C° 0 mm 3 m/s 768 mm Hg 86%
02:00 +1°C° 0 mm 3 m/s 768 mm Hg 88%
03:00 +1°C° 0 mm 3 m/s 768 mm Hg 89%
04:00 +1°C° 0 mm 3 m/s 768 mm Hg 88%
05:00 +1°C° 0 mm 3 m/s 768 mm Hg 86%
06:00 +2°C° 0 mm 3 m/s 768 mm Hg 85%
07:00 +3°C° 0 mm 3 m/s 768 mm Hg 80%
08:00 +4°C° 0 mm 4 m/s 768 mm Hg 75%
09:00 +5°C° 0 mm 4 m/s 768 mm Hg 71%
10:00 +6°C° 0 mm 4 m/s 767 mm Hg 68%
11:00 +7°C° 0 mm 4 m/s 767 mm Hg 66%
12:00 +7°C° 0 mm 4 m/s 767 mm Hg 64%
13:00 +7°C° 0 mm 4 m/s 767 mm Hg 65%
14:00 +7°C° 0 mm 4 m/s 767 mm Hg 67%
15:00 +7°C° 0 mm 4 m/s 767 mm Hg 68%
16:00 +7°C° 0 mm 4 m/s 767 mm Hg 71%
17:00 +7°C° 0 mm 4 m/s 767 mm Hg 73%
18:00 +7°C° 0 mm 3 m/s 767 mm Hg 76%
19:00 +7°C° 0 mm 3 m/s 767 mm Hg 78%
20:00 +7°C° 0 mm 3 m/s 767 mm Hg 80%
21:00 +5°C° 0 mm 3 m/s 767 mm Hg 83%
22:00 +5°C° 0 mm 3 m/s 767 mm Hg 83%
23:00 +6°C° 0 mm 2 m/s 766 mm Hg 84%
Mostrare altro

Abbiamo bisogno del tuo consenso

Meteoprog e i nostri fornitori di servizi possono memorizzare e accedere a dati personali come cookie, identificatori di dispositivi o altre tecnologie simili sul tuo dispositivo e possono elaborare tali dati per personalizzare i contenuti e gli annunci, nonché fornire funzionalità dei social media e analizzarne il traffico.

  • Archiviare e/o accedere alle informazioni sul tuo dispositivo

    Cookie, identificatori di dispositivi o altre informazioni possono essere memorizzati o resi accessibili sul tuo dispositivo per le finalità sopra indicate.

  • Annunci e contenuti personalizzati, misurazione di annunci e contenuti, approfondimenti sul pubblico e sviluppo di prodotti

    Gli annunci e i contenuti possono essere personalizzati in base a un profilo. È possibile aggiungere più dati per personalizzare meglio annunci e contenuti. È possibile misurare il rendimento degli annunci e dei contenuti. È possibile ricavare informazioni sul pubblico che ha visto gli annunci e i contenuti. Tali dati possono essere utilizzati per sviluppare o migliorare l'esperienza, i sistemi e il software dell'utente.

Cliccando su “Accetto”, acconsenti all'uso di cookie, identificatori di dispositivo, web beacon o altre tecnologie simili. Puoi modificare le impostazioni nel browser del tuo dispositivo.

Per determinati scopi, è possibile fare affidamento su interessi legali, piuttosto che sul consenso. Puoi approfondire questo argomento consultando la nostra Informativa sulla privacy e sui cookie.